Regional Weather Roundup
Issued by NWS State College, PA

Home | Current Version | Previous Version | Graphics & Text | Print | Product List | Glossary On
Versions: 1 2 3 4 5 6 7 8 9 10 11 12 13 14 15 16 17 18 19 20 21 22 23 24 25 26 27 28 29 30 31 32 33 34 35 36 37 38 39 40 41 42 43 44 45 46 47 48 49 50
000
ASUS41 KCTP 231303
RWRCTP

REGIONAL WEATHER ROUNDUP
NATIONAL WEATHER SERVICE STATE COLLEGE PA
900 AM EDT TUE MAY 23 2017

Note: "fair" indicates few or no clouds below 12,000 feet with no
significant weather and/or obstructions to visibility.

* = STATION THAT DOES NOT REPORT PRECIPITATION /E.G. RAIN...SNOW...ETC/
    THUNDER OR FOG.

PAZ002>004-007>009-013>016-020>023-029>032-231400-
WESTERN PENNSYLVANIA

CITY           SKY/WX    TMP DP  RH WIND       PRES   REMARKS
ERIE           PTSUNNY   61  48  62 S7        29.93S
MEADVILLE      PTSUNNY   57  47  69 CALM      29.95S
FRANKLIN*      PTSUNNY   50  45  81 CALM      29.97S
NEW CASTLE     FAIR      53  51  93 CALM      29.96S
BEAVER COUNTY  SUNNY     55  48  76 CALM      29.96S
BUTLER*        MOSUNNY   55  48  76 SE5       29.96S
PITTSBURGH INT CLOUDY    57  50  77 E5        29.95S
PITTSBURGH     CLOUDY    56  49  77 E5        29.96R
INDIANA*       NOT AVBL
LATROBE        CLOUDY    54  54 100 CALM      29.98R
WASHINGTON CO* CLOUDY    54  52  94 CALM      29.97R
$$

PAZ004>006-010>012-017>019-024>028-033>037-041-042-045-046-049>053-231400-
CENTRAL PENNSYLVANIA

CITY           SKY/WX    TMP DP  RH WIND       PRES   REMARKS
BRADFORD       CLOUDY    52  49  89 CALM      29.97S
DUBOIS         CLOUDY    53  47  79 E5        29.96F
CLEARFIELD     CLOUDY    49  47  93 CALM      29.99S
JOHNSTOWN      CLOUDY    52  47  83 SE5       29.98R
ALTOONA        CLOUDY    55  51  86 S3        30.00R
STATE COLLEGE  SUNNY     52  46  82 CALM      29.98F
WILLIAMSPORT   PTSUNNY   54  50  86 SW5       29.97F
SELINSGROVE    CLOUDY    56  53  90 CALM      29.98S
FT INDIANTOWN  CLOUDY    58  58 100 CALM      29.98R
CAPITAL CITY   CLOUDY    59  53  80 CALM      29.98R
HARRISBURG     CLOUDY    59  56  89 CALM      29.98R
YORK           CLOUDY    58  53  84 CALM      29.98R
$$

PAZ038>040-043-044-047-048-054-055-060>062-067>071-231400-
EASTERN PENNSYLVANIA

CITY           SKY/WX    TMP DP  RH WIND       PRES   REMARKS
SCRANTON       CLOUDY    58  46  64 CALM      29.96F
MOUNT POCONO   CLOUDY    56  42  59 N8        29.96F
ALLENTOWN      CLOUDY    58  50  75 NE3       29.97S
QUAKERTOWN*    CLOUDY    57  50  77 E3        29.98S
READING        CLOUDY    56  56 100 CALM      29.97R
LANCASTER      CLOUDY    59  57  93 CALM      29.98R
COATESVILLE    CLOUDY    57  54  88 NE5       29.99R
POTTSTOWN      CLOUDY    58  52  80 NE5       29.98S
BLUE BELL      CLOUDY    59  52  77 CALM      29.98R
DOYLESTOWN     CLOUDY    59  54  83 N7        29.96S
WILLOW GROVE   NOT AVBL
NORTH PHILA    CLOUDY    63  55  75 NE9       29.97S
PHILADELPHIA   CLOUDY    63  54  72 NE10G18   29.96S
$$




USA.gov is the U.S. government's official web portal to all federal, state and local government web resources and services.